| time (UTC) | temp F | wind direction | speed MPH | gust MPH | rain 1hr in | rain 24hr in | rain mn in | humidity % | barometer mb |
| 20260903093047 | 71 | 122 | 0.0 | 0.0 | 0.00 | 0.00 | 0.00 | 96 | 1017.5 |
| 20260903091539 | 71 | 122 | 0.0 | 0.0 | 0.00 | 0.00 | 0.00 | 95 | 1017.4 |
| 20260903090039 | 72 | 122 | 0.0 | 0.0 | 0.00 | 0.00 | 0.00 | 95 | 1017.5 |
| 20260903084534 | 72 | 122 | 0.0 | 0.0 | 0.00 | 0.00 | 0.00 | 95 | 1017.4 |
| 20260903083037 | 72 | 122 | 0.0 | 0.0 | 0.00 | 0.00 | 0.00 | 95 | 1017.3 |
| 20260903081534 | 72 | 122 | 0.0 | 0.0 | 0.00 | 0.00 | 0.00 | 95 | 1017.4 |
| 20260903080031 | 72 | 122 | 0.0 | 0.0 | 0.00 | 0.00 | 0.00 | 95 | 1017.3 |
| 20260903074631 | 72 | 122 | 0.0 | 0.0 | 0.00 | 0.00 | 0.00 | 95 | 1017.2 |
| 20260903073059 | 73 | 122 | 0.0 | 0.0 | 0.00 | 0.00 | 0.00 | 95 | 1017.2 |
| 20260903071602 | 73 | 122 | 0.0 | 0.0 | 0.00 | 0.00 | 0.00 | 95 | 1017.1 |
| 20260903070100 | 73 | 122 | 0.0 | 0.0 | 0.00 | 0.00 | 0.00 | 95 | 1017.2 |
| 20260903064553 | 73 | 122 | 0.0 | 0.0 | 0.00 | 0.00 | 0.00 | 95 | 1017.3 |
| 20260903063113 | 73 | 122 | 0.0 | 0.0 | 0.00 | 0.00 | 0.00 | 95 | 1017.2 |
| 20260903061551 | 73 | 122 | 0.0 | 0.0 | 0.00 | 0.00 | 0.00 | 95 | 1017.1 |
| 20260903060038 | 74 | 122 | 0.0 | 0.0 | 0.00 | 0.00 | 0.00 | 95 | 1017.1 |
| 20260903054535 | 74 | 122 | 0.0 | 0.0 | 0.00 | 0.00 | 0.00 | 95 | 1016.9 |
| 20260903053031 | 74 | 122 | 0.0 | 0.0 | 0.00 | 0.00 | 0.00 | 95 | 1017.1 |
| 20260903050031 | 75 | 122 | 0.0 | 0.0 | 0.00 | 0.00 | 0.00 | 95 | 1017.1 |
| 20260903044529 | 75 | 122 | 0.0 | 0.0 | 0.00 | 0.00 | 0.00 | 94 | 1017.1 |
| 20260903043029 | 75 | 122 | 0.0 | 0.0 | 0.00 | 0.00 | 0.00 | 94 | 1016.8 |
| 20260903040029 | 75 | 122 | 0.0 | 0.0 | 0.00 | 0.00 | 0.00 | 94 | 1017.0 |
| 20260903034531 | 76 | 122 | 0.0 | 0.0 | 0.00 | 0.00 | 0.00 | 94 | 1017.0 |
| 20260903033030 | 76 | 122 | 0.0 | 0.0 | 0.00 | 0.00 | 0.00 | 94 | 1017.1 |
| 20260903030007 | 76 | 122 | 0.0 | 0.0 | 0.00 | 0.00 | 0.00 | 93 | 1017.3 |
| 20260903024505 | 77 | 122 | 0.0 | 0.0 | 0.00 | 0.00 | 0.00 | 93 | 1017.3 |
| 20260903023038 | 77 | 122 | 0.0 | 0.0 | 0.00 | 0.00 | 0.00 | 93 | 1017.2 |
| 20260903021534 | 77 | 122 | 0.0 | 0.0 | 0.00 | 0.00 | 0.00 | 92 | 1017.2 |
| 20260903020030 | 78 | 122 | 0.0 | 0.0 | 0.00 | 0.00 | 0.00 | 92 | 1017.3 |
| 20260903014530 | 78 | 122 | 0.0 | 0.0 | 0.00 | 0.00 | 0.00 | 91 | 1017.2 |
| 20260903013030 | 79 | 122 | 0.0 | 0.0 | 0.00 | 0.00 | 0.00 | 91 | 1017.1 |
| 20260903011541 | 79 | 122 | 0.0 | 0.0 | 0.00 | 0.00 | 0.00 | 90 | 1016.9 |
| 20260903010031 | 80 | 122 | 0.0 | 0.0 | 0.00 | 0.00 | 0.00 | 89 | 1016.5 |
| 20260903004526 | 80 | 122 | 0.0 | 0.0 | 0.00 | 0.00 | 0.00 | 88 | 1016.3 |
| 20260903003026 | 81 | 122 | 0.0 | 0.0 | 0.00 | 0.00 | 0.00 | 88 | 1016.3 |
| 20260903001526 | 82 | 122 | 0.0 | 0.0 | 0.00 | 0.00 | 0.00 | 87 | 1016.2 |
| 20260903000055 | 83 | 122 | 0.0 | 0.0 | 0.00 | 0.00 | 0.00 | 86 | 1016.3 |
| 20260902234555 | 84 | 122 | 0.0 | 0.0 | 0.00 | 0.00 | 0.00 | 85 | 1016.3 |
| 20260902233057 | 84 | 122 | 0.0 | 0.0 | 0.00 | 0.00 | 0.00 | 83 | 1016.2 |
| 20260902231603 | 85 | 122 | 0.0 | 0.0 | 0.00 | 0.00 | 0.00 | 81 | 1016.3 |
| 20260902230051 | 86 | 122 | 0.0 | 0.0 | 0.00 | 0.00 | 0.00 | 79 | 1016.4 |
| 20260902224557 | 87 | 122 | 0.0 | 0.0 | 0.00 | 0.00 | 0.00 | 78 | 1016.4 |
| 20260902223048 | 89 | 122 | 0.0 | 0.0 | 0.00 | 0.00 | 0.00 | 76 | 1016.3 |
| 20260902221550 | 91 | 122 | 0.0 | 1.0 | 0.00 | 0.00 | 0.00 | 72 | 1016.3 |
| 20260902220047 | 92 | 122 | 0.0 | 1.0 | 0.00 | 0.00 | 0.00 | 69 | 1016.5 |
| 20260902214545 | 93 | 122 | 0.0 | 1.0 | 0.00 | 0.00 | 0.00 | 65 | 1016.4 |
| 20260902213051 | 94 | 122 | 0.0 | 1.0 | 0.00 | 0.00 | 0.00 | 62 | 1016.4 |
| 20260902211549 | 95 | 122 | 1.0 | 3.0 | 0.00 | 0.00 | 0.00 | 60 | 1016.6 |
| 20260902210038 | 96 | 232 | 0.0 | 0.0 | 0.00 | 0.00 | 0.00 | 58 | 1016.6 |
| 20260902204537 | 96 | 307 | 0.0 | 1.0 | 0.00 | 0.00 | 0.00 | 58 | 1016.7 |
| 20260902203033 | 95 | 328 | 1.0 | 6.0 | 0.00 | 0.00 | 0.00 | 59 | 1016.9 |
| 20260902201537 | 96 | 36 | 0.0 | 2.0 | 0.00 | 0.00 | 0.00 | 59 | 1017.0 |
| 20260902200034 | 96 | 72 | 0.0 | 4.0 | 0.00 | 0.00 | 0.00 | 60 | 1017.2 |
| 20260902194527 | 96 | 219 | 0.0 | 2.0 | 0.00 | 0.00 | 0.00 | 58 | 1017.4 |
| 20260902193023 | 96 | 280 | 1.0 | 6.0 | 0.00 | 0.00 | 0.00 | 55 | 1017.5 |
| 20260902191533 | 95 | 341 | 2.0 | 5.0 | 0.00 | 0.00 | 0.00 | 55 | 1017.5 |
| 20260902190119 | 94 | 248 | 2.0 | 6.0 | 0.00 | 0.00 | 0.00 | 58 | 1017.6 |
| 20260902184516 | 95 | 45 | 3.0 | 8.0 | 0.00 | 0.00 | 0.00 | 54 | 1017.8 |
| 20260902183019 | 95 | 9 | 1.0 | 7.0 | 0.00 | 0.00 | 0.00 | 56 | 1018.1 |
| 20260902181512 | 94 | 256 | 1.0 | 4.0 | 0.00 | 0.00 | 0.00 | 55 | 1018.1 |
| 20260902180012 | 94 | 51 | 1.0 | 3.0 | 0.00 | 0.00 | 0.00 | 62 | 1018.3 |
| 20260902174508 | 93 | 36 | 1.0 | 5.0 | 0.00 | 0.00 | 0.00 | 58 | 1018.5 |
| 20260902173005 | 94 | 208 | 0.0 | 6.0 | 0.00 | 0.00 | 0.00 | 61 | 1018.5 |
| 20260902171503 | 93 | 331 | 1.0 | 4.0 | 0.00 | 0.00 | 0.00 | 61 | 1018.8 |
| 20260902170059 | 92 | 40 | 2.0 | 8.0 | 0.00 | 0.00 | 0.00 | 63 | 1019.0 |
| 20260902164558 | 91 | 24 | 1.0 | 6.0 | 0.00 | 0.00 | 0.00 | 64 | 1019.5 |
| 20260902163100 | 91 | 10 | 0.0 | 4.0 | 0.00 | 0.00 | 0.00 | 67 | 1019.6 |
| 20260902161554 | 90 | 327 | 1.0 | 4.0 | 0.00 | 0.00 | 0.00 | 67 | 1019.7 |
| 20260902160050 | 89 | 116 | 0.0 | 3.0 | 0.00 | 0.00 | 0.00 | 69 | 1019.7 |
| 20260902154545 | 89 | 32 | 2.0 | 5.0 | 0.00 | 0.00 | 0.00 | 71 | 1019.8 |
| 20260902153040 | 88 | 14 | 3.0 | 6.0 | 0.00 | 0.00 | 0.00 | 72 | 1019.8 |
| 20260902151538 | 87 | 44 | 0.0 | 5.0 | 0.00 | 0.00 | 0.00 | 75 | 1019.8 |
| 20260902150034 | 86 | 329 | 1.0 | 3.0 | 0.00 | 0.00 | 0.00 | 79 | 1019.8 |
| 20260902144535 | 85 | 24 | 2.0 | 4.0 | 0.00 | 0.00 | 0.00 | 78 | 1019.8 |
| 20260902143027 | 84 | 13 | 0.0 | 0.0 | 0.00 | 0.00 | 0.00 | 80 | 1019.6 |
| 20260902141525 | 82 | 34 | 0.0 | 0.0 | 0.00 | 0.00 | 0.00 | 84 | 1019.7 |
| 20260902140018 | 80 | 28 | 0.0 | 0.0 | 0.00 | 0.00 | 0.00 | 89 | 1019.7 |
| 20260902134545 | 78 | 355 | 0.0 | 0.0 | 0.00 | 0.00 | 0.00 | 94 | 1019.7 |
| 20260902133040 | 76 | 355 | 0.0 | 0.0 | 0.00 | 0.00 | 0.00 | 96 | 1019.6 |
| 20260902131532 | 75 | 355 | 0.0 | 0.0 | 0.00 | 0.00 | 0.00 | 96 | 1019.5 |
| 20260902130027 | 73 | 355 | 0.0 | 0.0 | 0.00 | 0.00 | 0.00 | 97 | 1019.6 |
| 20260902124525 | 72 | 355 | 0.0 | 0.0 | 0.00 | 0.00 | 0.00 | 97 | 1019.6 |
| 20260902123023 | 71 | 355 | 0.0 | 0.0 | 0.00 | 0.00 | 0.00 | 97 | 1019.6 |
| 20260902121518 | 70 | 355 | 0.0 | 0.0 | 0.00 | 0.00 | 0.00 | 97 | 1019.4 |
| 20260902120017 | 69 | 355 | 0.0 | 0.0 | 0.00 | 0.00 | 0.00 | 96 | 1019.4 |
| 20260902114516 | 69 | 350 | 0.0 | 0.0 | 0.00 | 0.00 | 0.00 | 96 | 1019.3 |
| 20260902113030 | 69 | 350 | 0.0 | 0.0 | 0.00 | 0.00 | 0.00 | 96 | 1019.1 |
| 20260902111548 | 69 | 350 | 0.0 | 0.0 | 0.00 | 0.00 | 0.00 | 96 | 1019.0 |
| 20260902110046 | 69 | 350 | 0.0 | 0.0 | 0.00 | 0.00 | 0.00 | 96 | 1019.0 |
| 20260902104550 | 69 | 350 | 0.0 | 0.0 | 0.00 | 0.00 | 0.00 | 96 | 1019.0 |
| 20260902103042 | 69 | 349 | 0.0 | 0.0 | 0.00 | 0.00 | 0.00 | 95 | 1019.0 |
| 20260902101537 | 69 | 349 | 0.0 | 0.0 | 0.00 | 0.00 | 0.00 | 96 | 1019.0 |
| 20260902100038 | 69 | 349 | 0.0 | 0.0 | 0.00 | 0.00 | 0.00 | 96 | 1018.9 |
| 20260902094505 | 69 | 349 | 0.0 | 0.0 | 0.00 | 0.00 | 0.00 | 95 | 1018.9 |